STARLINK-36189

Last updated on Fri Dec 19 2025 00:02:09 GMT+0000 (Coordinated Universal Time)

1 67010U 25293H 25351.83335648 -.00969309 30247-3 -21633-2 0 9995 2 67010 69.9937 309.0206 0004096 265.9646 125.8501 15.97618262 2388
UTC large
Height (km)
Speed (km/s)
/
Latitude / Longitude
Inclination (degrees)
Orbital Period (minutes)
Azimuth
Elevation
Range (km)
Doppler Factor

Next 0 passes for location: London (51.5072 / 0.1276)

Sorry there are no passes over London.